SPACEBEE-91 (48940 NORAD) Tracking and Keplerian Element Data

This shows tracking and keplerian element data for the satellite.

Feedback or suggestion? Click here.




ElementValue
Catalog48940
NameSPACEBEE-91
Epoch Orbit1288
Epoch Day261.94411091
Epoch Year2021
RAAN29.6939
Inclination97.5178
Eccentricity0.0016752
Argument of Perigee324.6879
Mean Anonmoly35.3242
Mean Motion15.14614313
Decay Rate3.89E-05
L11 48940U 21059BP 21261.94411091 .00003890 00000-0 21356-3 0 9993
L22 48940 97.5178 29.6939 0016752 324.6879 35.3242 15.14614313 12889

Live tracking and technical data element details for SPACEBEE-91 (NORAD 48940). SPACEBEE-91 can be tracked NOW for your location showing map with azimuth and elevation plus other details from your city location.

Track the satellite on the map from your city or location and see movement details for azimuth, elevation, latitude, longitude, range, height, and movement on the map or in text.







IsCatalogInMostPopularTable: catalog: 48940, numindb: 14
Update: records affected: 1



GetName: 48940 SPACEBEE-91

Hit Count: updated at: Fri, 24 Sep 2021 18:27:57 GMT